TimeCDT,TemperatureF,Dew PointF,Humidity,Sea Level PressureIn,VisibilityMPH,Wind Direction,Wind SpeedMPH,Gust SpeedMPH,PrecipitationIn,Events,Conditions,WindDirDegrees,DateUTC
12:15 AM,25.0,16.2,69,29.80,10.0,West,26.5,31.1,N/A,,Overcast,270,2013-03-19 05:15:00
12:35 AM,24.6,15.1,67,29.81,10.0,West,25.3,38.0,N/A,,Overcast,280,2013-03-19 05:35:00
12:55 AM,24.1,13.8,65,29.81,10.0,West,20.7,29.9,N/A,,Overcast,270,2013-03-19 05:55:00
1:15 AM,23.7,13.5,65,29.81,10.0,West,26.5,32.2,N/A,,Overcast,270,2013-03-19 06:15:00
1:35 AM,23.5,13.8,66,29.81,10.0,West,20.7,28.8,N/A,,Mostly Cloudy,270,2013-03-19 06:35:00
1:55 AM,23.2,13.6,67,29.81,10.0,West,23.0,34.5,N/A,,Mostly Cloudy,270,2013-03-19 06:55:00
2:15 AM,23.0,12.6,64,29.82,10.0,West,16.1,29.9,N/A,,Mostly Cloudy,270,2013-03-19 07:15:00
2:35 AM,22.8,13.3,67,29.82,10.0,West,20.7,27.6,N/A,,Mostly Cloudy,270,2013-03-19 07:35:00
2:55 AM,22.5,13.8,69,29.81,10.0,West,17.3,26.5,N/A,,Scattered Clouds,270,2013-03-19 07:55:00
3:15 AM,22.1,14.7,73,29.81,10.0,West,11.5,19.6,N/A,,Clear,260,2013-03-19 08:15:00
3:35 AM,22.1,14.9,74,29.81,10.0,West,12.7,17.3,N/A,,Scattered Clouds,260,2013-03-19 08:35:00
3:55 AM,22.5,15.1,73,29.81,10.0,West,18.4,-,N/A,,Overcast,260,2013-03-19 08:55:00
4:15 AM,22.6,15.3,73,29.82,10.0,WSW,21.9,28.8,N/A,,Overcast,250,2013-03-19 09:15:00
4:35 AM,22.1,13.8,70,29.83,10.0,West,24.2,35.7,N/A,,Overcast,270,2013-03-19 09:35:00
4:55 AM,21.6,13.1,70,29.83,10.0,West,19.6,29.9,N/A,,Overcast,260,2013-03-19 09:55:00
5:15 AM,21.4,14.5,75,29.84,7.0,West,15.0,21.9,N/A,,Overcast,270,2013-03-19 10:15:00
5:35 AM,21.6,15.1,76,29.84,10.0,West,21.9,31.1,N/A,,Overcast,260,2013-03-19 10:35:00
5:55 AM,21.7,13.5,70,29.84,10.0,West,24.2,32.2,N/A,,Overcast,260,2013-03-19 10:55:00
6:15 AM,21.7,13.3,70,29.85,10.0,West,20.7,29.9,N/A,,Overcast,270,2013-03-19 11:15:00
6:35 AM,21.2,12.6,69,29.86,10.0,West,18.4,28.8,N/A,,Mostly Cloudy,270,2013-03-19 11:35:00
6:55 AM,21.0,12.9,71,29.86,10.0,West,23.0,26.5,N/A,,Mostly Cloudy,260,2013-03-19 11:55:00
7:15 AM,21.2,13.6,73,29.86,10.0,West,23.0,28.8,N/A,,Overcast,260,2013-03-19 12:15:00
7:35 AM,20.8,12.4,70,29.86,10.0,West,20.7,29.9,N/A,,Mostly Cloudy,270,2013-03-19 12:35:00
7:55 AM,20.7,12.0,69,29.86,10.0,West,17.3,29.9,N/A,,Scattered Clouds,270,2013-03-19 12:55:00
8:15 AM,21.0,12.6,70,29.87,10.0,West,26.5,33.4,N/A,,Mostly Cloudy,270,2013-03-19 13:15:00
8:35 AM,21.4,11.5,66,29.87,10.0,West,25.3,29.9,N/A,,Scattered Clouds,260,2013-03-19 13:35:00
8:55 AM,21.6,11.7,66,29.88,10.0,West,25.3,32.2,N/A,,Scattered Clouds,270,2013-03-19 13:55:00
9:15 AM,21.7,11.3,64,29.88,10.0,West,24.2,32.2,N/A,,Scattered Clouds,270,2013-03-19 14:15:00
9:35 AM,22.6,11.7,63,29.89,10.0,West,28.8,34.5,N/A,,Scattered Clouds,260,2013-03-19 14:35:00
9:55 AM,22.8,11.5,62,29.89,10.0,West,27.6,34.5,N/A,,Scattered Clouds,270,2013-03-19 14:55:00
10:15 AM,23.5,12.2,62,29.89,10.0,West,25.3,33.4,N/A,,Scattered Clouds,260,2013-03-19 15:15:00
10:35 AM,24.3,12.7,62,29.89,10.0,West,31.1,36.8,N/A,,Scattered Clouds,260,2013-03-19 15:35:00
10:55 AM,25.0,13.5,62,29.90,10.0,West,25.3,35.7,N/A,,Scattered Clouds,260,2013-03-19 15:55:00
11:15 AM,25.7,14.0,61,29.92,10.0,West,26.5,33.4,N/A,,Scattered Clouds,270,2013-03-19 16:15:00
11:35 AM,26.2,14.5,61,29.93,10.0,West,23.0,33.4,N/A,,Mostly Cloudy,270,2013-03-19 16:35:00
11:55 AM,27.3,15.1,60,29.93,10.0,West,24.2,35.7,N/A,,Scattered Clouds,270,2013-03-19 16:55:00
12:15 PM,28.0,15.1,58,29.93,10.0,West,26.5,38.0,N/A,,Scattered Clouds,270,2013-03-19 17:15:00
12:35 PM,28.8,15.1,57,29.94,10.0,West,19.6,36.8,N/A,,Scattered Clouds,270,2013-03-19 17:35:00
12:55 PM,29.7,15.1,55,29.95,10.0,West,28.8,36.8,N/A,,Scattered Clouds,270,2013-03-19 17:55:00
1:15 PM,29.8,14.9,54,29.95,10.0,West,28.8,35.7,N/A,,Scattered Clouds,260,2013-03-19 18:15:00
1:35 PM,30.6,16.3,56,29.96,10.0,West,21.9,35.7,N/A,,Scattered Clouds,270,2013-03-19 18:35:00
1:55 PM,31.3,16.2,54,29.96,10.0,West,24.2,33.4,N/A,,Scattered Clouds,270,2013-03-19 18:55:00
2:15 PM,31.3,15.6,52,29.96,10.0,West,27.6,34.5,N/A,,Scattered Clouds,260,2013-03-19 19:15:00
2:35 PM,32.0,16.9,54,29.96,10.0,West,24.2,33.4,N/A,,Clear,270,2013-03-19 19:35:00
2:55 PM,32.4,17.4,54,29.96,10.0,West,21.9,35.7,N/A,,Clear,260,2013-03-19 19:55:00
3:15 PM,32.9,17.2,53,29.97,10.0,West,28.8,35.7,N/A,,Clear,260,2013-03-19 20:15:00
3:35 PM,33.1,16.9,51,29.98,10.0,West,21.9,35.7,N/A,,Clear,270,2013-03-19 20:35:00
3:55 PM,33.6,16.9,50,29.98,10.0,West,23.0,28.8,N/A,,Clear,270,2013-03-19 20:55:00
4:15 PM,33.8,16.3,49,29.98,10.0,West,24.2,32.2,N/A,,Clear,280,2013-03-19 21:15:00
4:35 PM,33.8,16.5,49,29.99,10.0,West,21.9,33.4,N/A,,Clear,260,2013-03-19 21:35:00
4:55 PM,34.0,16.7,49,29.99,10.0,West,24.2,33.4,N/A,,Clear,270,2013-03-19 21:55:00
5:15 PM,33.8,15.4,47,29.99,10.0,West,23.0,33.4,N/A,,Clear,280,2013-03-19 22:15:00
5:35 PM,34.0,15.8,47,30.00,10.0,West,19.6,26.5,N/A,,Clear,270,2013-03-19 22:35:00
5:55 PM,33.8,16.0,48,30.00,10.0,West,17.3,26.5,N/A,,Clear,270,2013-03-19 22:55:00
6:15 PM,33.6,16.5,50,30.01,10.0,West,18.4,-,N/A,,Clear,270,2013-03-19 23:15:00
6:35 PM,33.1,16.3,50,30.01,10.0,West,16.1,24.2,N/A,,Clear,270,2013-03-19 23:35:00
6:55 PM,32.5,15.6,50,30.03,10.0,West,16.1,23.0,N/A,,Clear,260,2013-03-19 23:55:00
7:15 PM,32.2,16.3,52,30.03,10.0,West,19.6,26.5,N/A,,Clear,270,2013-03-20 00:15:00
7:35 PM,32.0,16.3,52,30.03,10.0,West,17.3,25.3,N/A,,Clear,270,2013-03-20 00:35:00
7:55 PM,31.8,16.5,53,30.03,10.0,West,19.6,26.5,N/A,,Scattered Clouds,270,2013-03-20 00:55:00
8:15 PM,31.5,16.9,55,30.03,10.0,West,17.3,24.2,N/A,,Scattered Clouds,270,2013-03-20 01:15:00
8:35 PM,30.9,17.1,57,30.04,10.0,West,18.4,25.3,N/A,,Clear,270,2013-03-20 01:35:00
8:55 PM,30.6,16.7,56,30.04,10.0,West,18.4,-,N/A,,Clear,270,2013-03-20 01:55:00
9:15 PM,30.2,16.9,58,30.04,10.0,West,16.1,23.0,N/A,,Clear,270,2013-03-20 02:15:00
9:35 PM,30.0,16.7,58,30.05,10.0,West,18.4,24.2,N/A,,Clear,270,2013-03-20 02:35:00
9:55 PM,29.8,17.1,59,30.05,10.0,West,15.0,-,N/A,,Clear,270,2013-03-20 02:55:00
10:15 PM,29.3,16.9,60,30.05,10.0,West,15.0,23.0,N/A,,Clear,270,2013-03-20 03:15:00
10:35 PM,28.8,16.5,60,30.06,10.0,West,16.1,-,N/A,,Clear,270,2013-03-20 03:35:00
10:55 PM,28.6,16.2,60,30.05,10.0,West,13.8,19.6,N/A,,Clear,270,2013-03-20 03:55:00
11:15 PM,28.4,15.6,59,30.05,10.0,West,12.7,21.9,N/A,,Clear,270,2013-03-20 04:15:00
11:35 PM,28.0,15.4,59,30.05,10.0,West,12.7,20.7,N/A,,Clear,270,2013-03-20 04:35:00
11:55 PM,27.9,14.9,58,30.06,10.0,West,13.8,20.7,N/A,,Clear,280,2013-03-20 04:55:00